DW6610 Weather Reports


time (UTC)temp
F
wind
direction
speed
knots
gust
knots
rain 1hr
in
rain 24hr
in
rain mn
in
humidity
%
barometer
mb
20260503214048 77 37 1.7 6.1 0.00 0.00 0.00 32 1017.5
20260503213551 77 19 2.6 6.1 0.00 0.00 0.00 32 1017.6
20260503213053 77 96 1.7 6.1 0.00 0.00 0.00 34 1017.6
20260503212552 78 98 1.7 4.3 0.00 0.00 0.00 33 1017.6
20260503212051 77 51 1.7 5.2 0.00 0.00 0.00 31 1017.7
20260503211552 77 77 1.7 7.0 0.00 0.00 0.00 34 1018.0
20260503211050 77 156 2.6 7.0 0.00 0.00 0.00 34 1018.0
20260503210550 77 32 1.7 5.2 0.00 0.00 0.00 32 1018.0
20260503210055 77 79 2.6 7.0 0.00 0.00 0.00 37 1018.2
20260503205550 77 108 1.7 7.0 0.00 0.00 0.00 36 1018.1
20260503205050 77 74 1.7 5.2 0.00 0.00 0.00 34 1018.2
20260503204555 77 62 0.9 5.2 0.00 0.00 0.00 39 1018.2
20260503204050 76 84 2.6 5.2 0.00 0.00 0.00 34 1018.2
20260503203549 76 63 2.6 5.2 0.00 0.00 0.00 36 1018.4
20260503203057 77 95 0.9 5.2 0.00 0.00 0.00 35 1018.4
20260503202551 76 55 0.9 9.6 0.00 0.00 0.00 35 1018.4
20260503202051 76 82 0.9 9.6 0.00 0.00 0.00 36 1018.6
20260503201554 76 18 1.7 6.1 0.00 0.00 0.00 33 1018.6
20260503201052 76 102 1.7 6.1 0.00 0.00 0.00 35 1018.7
20260503200550 75 61 1.7 7.0 0.00 0.00 0.00 36 1018.9
20260503200100 75 85 1.7 8.7 0.00 0.00 0.00 36 1019.1
20260503195551 75 69 3.5 8.7 0.00 0.00 0.00 34 1019.2
20260503195050 75 335 2.6 7.8 0.00 0.00 0.00 34 1019.4
20260503194624 75 6 2.6 7.0 0.00 0.00 0.00 34 1019.5
20260503194053 75 39 3.5 7.0 0.00 0.00 0.00 35 1019.5
20260503193550 75 298 2.6 7.0 0.00 0.00 0.00 38 1019.5
20260503193101 75 37 2.6 5.2 0.00 0.00 0.00 37 1019.6
20260503192549 74 120 1.7 7.8 0.00 0.00 0.00 39 1019.6
20260503192055 74 58 2.6 7.8 0.00 0.00 0.00 37 1019.7
20260503191601 75 338 0.9 7.0 0.00 0.00 0.00 39 1019.8
20260503191050 74 92 3.5 8.7 0.00 0.00 0.00 39 1019.9
20260503190551 74 311 2.6 8.7 0.00 0.00 0.00 38 1020.0
20260503190056 74 306 3.5 9.6 0.00 0.00 0.00 37 1020.1
20260503185549 74 285 1.7 9.6 0.00 0.00 0.00 41 1020.1
20260503185054 74 56 3.5 7.8 0.00 0.00 0.00 40 1020.2
20260503184553 74 2 2.6 10.4 0.00 0.00 0.00 40 1020.2
20260503184050 74 78 2.6 10.4 0.00 0.00 0.00 40 1020.4
20260503183550 74 53 1.7 6.1 0.00 0.00 0.00 40 1020.5
20260503183058 74 142 1.7 6.1 0.00 0.00 0.00 45 1020.6
20260503182550 73 86 2.6 6.1 0.00 0.00 0.00 40 1020.7
20260503182050 73 103 1.7 6.1 0.00 0.00 0.00 41 1020.7
20260503181605 73 302 2.6 6.1 0.00 0.00 0.00 40 1021.0
20260503181055 73 86 2.6 6.1 0.00 0.00 0.00 40 1020.9
20260503180551 73 75 1.7 8.7 0.00 0.00 0.00 43 1020.9
20260503180055 72 58 2.6 8.7 0.00 0.00 0.00 41 1021.0
20260503175551 73 33 2.6 7.0 0.00 0.00 0.00 38 1021.1
20260503175050 73 81 2.6 9.6 0.00 0.00 0.00 40 1021.1
20260503174556 72 37 1.7 9.6 0.00 0.00 0.00 45 1021.3
20260503174050 72 75 2.6 7.8 0.00 0.00 0.00 40 1021.4
20260503173550 72 68 1.7 7.8 0.00 0.00 0.00 42 1021.5
20260503173100 73 356 0.9 5.2 0.00 0.00 0.00 40 1021.6
20260503172551 72 71 2.6 5.2 0.00 0.00 0.00 44 1021.7
20260503172049 72 46 1.7 6.1 0.00 0.00 0.00 40 1021.7
20260503171552 72 92 2.6 6.1 0.00 0.00 0.00 40 1021.8
20260503171050 71 4 1.7 7.8 0.00 0.00 0.00 41 1021.9
20260503170551 71 87 3.5 7.8 0.00 0.00 0.00 44 1022.1
20260503150550 66 37 1.7 6.1 0.00 0.00 0.00 52 1022.8
20260503131050 54 84 0.0 3.5 0.00 0.00 0.00 80 1022.8
20260503130550 53 78 0.0 3.5 0.00 0.00 0.00 83 1022.9
20260503120105 41 0 0.0 0.9 0.00 0.00 0.00 99 1022.5
20260503110551 40 0 0.0 0.0 0.00 0.00 0.00 98 1021.8
20260503081553 43 0 0.0 0.0 0.00 0.00 0.00 94 1021.6
20260503081049 43 0 0.0 0.0 0.00 0.00 0.00 94 1021.5
20260503080551 43 0 0.0 0.0 0.00 0.00 0.00 94 1021.5
20260503072556 44 0 0.0 0.0 0.00 0.00 0.00 92 1021.5
20260503072052 44 0 0.0 0.0 0.00 0.00 0.00 91 1021.5
20260503071557 44 0 0.0 0.0 0.00 0.00 0.00 90 1021.5
20260503071051 45 0 0.0 0.0 0.00 0.00 0.00 90 1021.4
20260503070551 45 0 0.0 0.0 0.00 0.00 0.00 90 1021.4
20260503055051 49 0 0.0 0.9 0.00 0.00 0.00 82 1021.3
20260503054559 49 0 0.0 0.9 0.00 0.00 0.00 82 1021.2
20260503054051 49 0 0.0 0.9 0.00 0.00 0.00 82 1021.3
20260503053548 49 0 0.0 0.0 0.00 0.00 0.00 82 1021.3
20260503053052 48 0 0.0 0.0 0.00 0.00 0.00 82 1021.4
20260503052552 49 0 0.0 0.0 0.00 0.00 0.00 81 1021.4
20260503052052 49 0 0.0 0.0 0.00 0.00 0.00 80 1021.3
20260503051553 49 0 0.0 0.0 0.00 0.00 0.00 80 1021.2
20260503051051 50 0 0.0 0.9 0.00 0.00 0.00 80 1021.2
20260503050551 50 0 0.0 0.9 0.00 0.00 0.00 79 1021.1
20260503050100 50 0 0.0 0.0 0.00 0.00 0.00 78 1021.1
20260503045553 50 0 0.0 0.9 0.00 0.00 0.00 77 1021.1
20260503045052 51 0 0.0 0.9 0.00 0.00 0.00 77 1021.0
20260503044612 51 0 0.0 0.9 0.00 0.00 0.00 77 1021.0
20260503044052 51 0 0.0 0.9 0.00 0.00 0.00 76 1020.9
20260503043551 51 0 0.0 0.9 0.00 0.00 0.00 75 1020.8
20260503043058 52 0 0.0 0.9 0.00 0.00 0.00 75 1020.8
20260503042552 52 0 0.0 0.9 0.00 0.00 0.00 74 1020.7
20260503042052 52 0 0.0 0.9 0.00 0.00 0.00 74 1020.7
20260503041610 52 0 0.0 0.9 0.00 0.00 0.00 74 1020.8
20260503041051 52 125 0.0 0.9 0.00 0.00 0.00 73 1020.7
20260503040551 53 0 0.0 0.9 0.00 0.00 0.00 73 1020.7
20260503040054 53 125 0.0 0.9 0.00 0.00 0.00 72 1020.7
20260503035555 53 0 0.0 0.9 0.00 0.00 0.00 72 1020.6
20260503035056 53 125 0.0 0.9 0.00 0.00 0.00 71 1020.6
20260503034554 54 0 0.0 0.9 0.00 0.00 0.00 71 1020.7
20260503034051 54 0 0.0 0.9 0.00 0.00 0.00 70 1020.6
20260503033551 54 125 0.0 0.9 0.00 0.00 0.00 70 1020.6
20260503033106 55 0 0.0 0.9 0.00 0.00 0.00 69 1020.7
20260503032551 55 0 0.0 1.7 0.00 0.00 0.00 68 1020.5
20260503032051 55 109 0.0 3.5 0.00 0.00 0.00 67 1020.5
20260503031550 55 110 0.0 3.5 0.00 0.00 0.00 66 1020.4
20260503031051 56 169 0.9 3.5 0.00 0.00 0.00 66 1020.5
20260503030549 56 143 0.0 4.3 0.00 0.00 0.00 65 1020.4
20260503030105 56 153 0.9 4.3 0.00 0.00 0.00 65 1020.4
20260503025551 56 176 0.0 3.5 0.00 0.00 0.00 64 1020.3
20260503025048 55 0 0.0 3.5 0.00 0.00 0.00 64 1020.3
20260503024601 56 118 0.0 3.5 0.00 0.00 0.00 63 1020.2
20260503024048 55 198 0.0 3.5 0.00 0.00 0.00 62 1020.2
20260503023551 55 119 0.9 3.5 0.00 0.00 0.00 61 1020.1
20260503023055 55 109 0.9 3.5 0.00 0.00 0.00 62 1020.1
20260503022551 54 0 0.0 0.9 0.00 0.00 0.00 62 1020.0
20260503022051 55 0 0.0 0.0 0.00 0.00 0.00 61 1019.9
20260503021554 55 0 0.0 0.0 0.00 0.00 0.00 61 1019.8
20260503021051 56 0 0.0 0.0 0.00 0.00 0.00 59 1019.7
20260503020551 56 0 0.0 0.0 0.00 0.00 0.00 57 1019.6
20260503020056 57 0 0.0 0.0 0.00 0.00 0.00 56 1019.6
20260503015555 57 0 0.0 0.9 0.00 0.00 0.00 56 1019.4
20260503015055 58 0 0.0 0.9 0.00 0.00 0.00 55 1019.4
20260503014553 58 0 0.0 0.9 0.00 0.00 0.00 55 1019.3
20260503014052 58 0 0.0 0.9 0.00 0.00 0.00 55 1019.2
20260503013553 58 0 0.0 0.9 0.00 0.00 0.00 54 1019.1
20260503013101 59 0 0.0 0.9 0.00 0.00 0.00 53 1018.9
20260503012552 59 141 0.0 0.9 0.00 0.00 0.00 52 1018.9
20260503012052 59 0 0.0 0.9 0.00 0.00 0.00 51 1018.9
20260503011607 60 141 0.0 0.9 0.00 0.00 0.00 51 1018.8
20260503011054 60 0 0.0 0.9 0.00 0.00 0.00 51 1018.7
20260503010551 61 150 0.0 0.9 0.00 0.00 0.00 50 1018.7
20260503005552 61 0 0.0 1.7 0.00 0.00 0.00 48 1018.7
20260503005052 62 150 0.0 0.9 0.00 0.00 0.00 48 1018.6
20260503004600 62 0 0.0 2.6 0.00 0.00 0.00 47 1018.5
20260503004051 63 0 0.0 3.5 0.00 0.00 0.00 46 1018.5
20260503003552 63 153 0.9 5.2 0.00 0.00 0.00 45 1018.5
20260503003105 63 149 0.0 5.2 0.00 0.00 0.00 45 1018.4
20260503002548 64 158 0.0 3.5 0.00 0.00 0.00 44 1018.3
20260503002051 64 134 0.0 3.5 0.00 0.00 0.00 45 1018.3
20260503001606 64 205 0.9 4.3 0.00 0.00 0.00 44 1018.2
20260503001052 65 117 0.9 4.3 0.00 0.00 0.00 45 1018.2
20260503000552 65 116 0.0 3.5 0.00 0.00 0.00 44 1018.1
20260503000100 66 154 0.9 4.3 0.00 0.00 0.00 43 1018.0
20260502235551 67 101 0.9 7.0 0.00 0.00 0.00 43 1017.8
20260502235051 67 150 0.9 7.0 0.00 0.00 0.00 41 1017.9
20260502234559 68 116 1.7 7.0 0.00 0.00 0.00 40 1018.0
20260502234052 68 91 0.9 4.3 0.00 0.00 0.00 42 1017.8
20260502233552 68 94 1.7 7.0 0.00 0.00 0.00 40 1017.7
20260502233059 68 93 1.7 7.0 0.00 0.00 0.00 41 1017.8
20260502232552 69 117 2.6 7.0 0.00 0.00 0.00 40 1017.8
20260502232048 69 203 1.7 4.3 0.00 0.00 0.00 39 1017.7
20260502231558 69 129 1.7 6.1 0.00 0.00 0.00 39 1017.7
20260502231054 69 90 2.6 6.1 0.00 0.00 0.00 39 1017.8
20260502230552 69 175 0.9 4.3 0.00 0.00 0.00 41 1017.8
20260502230101 68 103 1.7 6.1 0.00 0.00 0.00 42 1017.8
20260502225551 69 108 1.7 6.1 0.00 0.00 0.00 42 1017.8
20260502225052 69 222 0.9 6.1 0.00 0.00 0.00 39 1017.8
20260502224556 70 110 0.9 6.1 0.00 0.00 0.00 41 1017.8
20260502224052 70 171 1.7 6.1 0.00 0.00 0.00 40 1017.7
20260502223552 70 124 0.9 7.0 0.00 0.00 0.00 41 1017.6
20260502223057 70 155 0.9 7.0 0.00 0.00 0.00 43 1017.7
20260502222552 69 127 2.6 7.0 0.00 0.00 0.00 41 1017.7
20260502222052 70 100 1.7 6.1 0.00 0.00 0.00 41 1017.7
20260502221556 70 110 1.7 11.3 0.00 0.00 0.00 41 1017.6
20260502221051 70 143 1.7 11.3 0.00 0.00 0.00 40 1017.6
20260502220555 71 205 1.7 6.1 0.00 0.00 0.00 39 1017.5
20260502220141 73 88 2.6 8.7 0.00 0.00 0.00 38 1017.4
20260502215553 74 91 3.5 8.7 0.00 0.00 0.00 37 1017.5
20260502215053 74 63 1.7 5.2 0.00 0.00 0.00 38 1017.4
20260502214555 74 127 0.9 5.2 0.00 0.00 0.00 37 1017.3